SWA1125 KBWI-KIND

Flight info

Callsign SWA1125
Flight time 1h 28m
Altitude 30000
Route FOXHL1 RAMAY Q72 HACKS PLASH SNKPT2
Aircraft B738/M-SDE2E3FGHIRWXY/LB1

Departure

Time 2026-05-06 16:13
Airport Baltimore/Washington International Thurgood Marshall Airport (KBWI)

Arrival

Time 2026-05-06 17:41
Airport Indianapolis International Airport (KIND)
Time Latitude Longitude Altitude Speed Heading
2026-05-06 15:07 39.17677 -76.67022 167 ft 0 kts 85°
2026-05-06 16:03 39.17677 -76.67025 176 ft 2 kts 85°
2026-05-06 16:03 39.17676 -76.67048 157 ft 3 kts 85°
2026-05-06 16:04 39.17674 -76.67074 157 ft 3 kts 85°
2026-05-06 16:04 39.17673 -76.67100 157 ft 3 kts 85°
2026-05-06 16:04 39.17671 -76.67126 157 ft 3 kts 85°
2026-05-06 16:04 39.17671 -76.67137 157 ft 2 kts 85°
2026-05-06 16:07 39.17671 -76.67135 157 ft 2 kts 89°
2026-05-06 16:07 39.17654 -76.67103 157 ft 7 kts 135°
2026-05-06 16:07 39.17604 -76.67054 159 ft 10 kts 143°
2026-05-06 16:07 39.17552 -76.66995 159 ft 10 kts 135°
2026-05-06 16:08 39.17533 -76.66913 158 ft 10 kts 101°
2026-05-06 16:08 39.17492 -76.66841 159 ft 10 kts 130°
2026-05-06 16:08 39.17462 -76.66762 158 ft 10 kts 103°
2026-05-06 16:08 39.17454 -76.66676 158 ft 10 kts 95°
2026-05-06 16:09 39.17449 -76.66591 156 ft 9 kts 92°
2026-05-06 16:09 39.17459 -76.66500 153 ft 11 kts 60°
2026-05-06 16:09 39.17514 -76.66420 151 ft 12 kts 70°
2026-05-06 16:09 39.17496 -76.66318 150 ft 12 kts 121°
2026-05-06 16:10 39.17459 -76.66223 151 ft 12 kts 104°
2026-05-06 16:10 39.17451 -76.66120 151 ft 11 kts 93°
2026-05-06 16:10 39.17446 -76.66019 150 ft 11 kts 94°
2026-05-06 16:10 39.17441 -76.65923 149 ft 11 kts 94°
2026-05-06 16:11 39.17435 -76.65830 151 ft 10 kts 95°
2026-05-06 16:11 39.17429 -76.65740 153 ft 10 kts 95°
2026-05-06 16:11 39.17423 -76.65653 155 ft 10 kts 96°
2026-05-06 16:11 39.17415 -76.65569 156 ft 9 kts 106°
2026-05-06 16:12 39.17363 -76.65528 156 ft 9 kts 174°
2026-05-06 16:12 39.17301 -76.65541 156 ft 9 kts 204°
2026-05-06 16:12 39.17281 -76.65614 154 ft 10 kts 273°
2026-05-06 16:12 39.17305 -76.66048 150 ft 95 kts 275°
2026-05-06 16:13 39.17359 -76.67269 203 ft 173 kts 271°
2026-05-06 16:13 39.17488 -76.68899 1131 ft 182 kts 274°
2026-05-06 16:13 39.17723 -76.70392 2752 ft 162 kts 268°
2026-05-06 16:13 39.17830 -76.71960 3278 ft 194 kts 266°
2026-05-06 16:14 39.17888 -76.73770 3738 ft 213 kts 267°
2026-05-06 16:14 39.17914 -76.75797 4283 ft 230 kts 268°
2026-05-06 16:14 39.18176 -76.77826 5356 ft 234 kts 280°
2026-05-06 16:14 39.18631 -76.79893 6141 ft 245 kts 280°
2026-05-06 16:15 39.19066 -76.82043 7019 ft 249 kts 279°
2026-05-06 16:15 39.19498 -76.84209 7971 ft 251 kts 279°
2026-05-06 16:15 39.19933 -76.86404 8867 ft 255 kts 279°
2026-05-06 16:15 39.20369 -76.88629 9818 ft 256 kts 279°
2026-05-06 16:16 39.20809 -76.90892 10495 ft 268 kts 279°
2026-05-06 16:16 39.21280 -76.93340 10708 ft 295 kts 279°
2026-05-06 16:16 39.21795 -76.96016 10894 ft 320 kts 279°
2026-05-06 16:16 39.22138 -76.98934 11069 ft 340 kts 270°
2026-05-06 16:17 39.22161 -77.01992 11403 ft 353 kts 267°
2026-05-06 16:17 39.22150 -77.05195 11935 ft 360 kts 268°
2026-05-06 16:17 39.22169 -77.08441 12610 ft 363 kts 268°
2026-05-06 16:17 39.22014 -77.11685 13293 ft 364 kts 256°
2026-05-06 16:18 39.21102 -77.14726 13946 ft 366 kts 243°
2026-05-06 16:18 39.19658 -77.17452 14524 ft 371 kts 231°
2026-05-06 16:18 39.17882 -77.19840 15110 ft 375 kts 229°
2026-05-06 16:18 39.16026 -77.22228 15672 ft 378 kts 228°
2026-05-06 16:19 39.14165 -77.24619 16416 ft 374 kts 229°
2026-05-06 16:19 39.12336 -77.26989 17129 ft 374 kts 230°
2026-05-06 16:19 39.10516 -77.29375 17608 ft 377 kts 230°
2026-05-06 16:19 39.08657 -77.31827 17871 ft 387 kts 230°
2026-05-06 16:20 39.06787 -77.34309 18277 ft 390 kts 232°
2026-05-06 16:20 39.05310 -77.37066 18715 ft 385 kts 246°
2026-05-06 16:20 39.04381 -77.40261 19232 ft 382 kts 257°
2026-05-06 16:20 39.03957 -77.43569 19682 ft 384 kts 262°
2026-05-06 16:21 39.03636 -77.46931 20095 ft 386 kts 263°
2026-05-06 16:21 39.03326 -77.50362 20512 ft 389 kts 263°
2026-05-06 16:21 39.03040 -77.53505 20897 ft 390 kts 262°
2026-05-06 16:21 39.02717 -77.56958 21320 ft 392 kts 262°
2026-05-06 16:22 39.02402 -77.60228 21727 ft 393 kts 262°
2026-05-06 16:22 39.02069 -77.63613 22309 ft 390 kts 262°
2026-05-06 16:22 39.01731 -77.67008 22748 ft 391 kts 262°
2026-05-06 16:22 39.01383 -77.70474 23124 ft 393 kts 262°
2026-05-06 16:23 39.01036 -77.73901 23436 ft 396 kts 262°
2026-05-06 16:23 39.00692 -77.77285 23699 ft 399 kts 262°
2026-05-06 16:23 39.00341 -77.80730 23962 ft 401 kts 262°
2026-05-06 16:23 38.99983 -77.84233 24217 ft 402 kts 262°
2026-05-06 16:24 38.99634 -77.87636 24507 ft 403 kts 262°
2026-05-06 16:24 38.99275 -77.91132 24808 ft 403 kts 262°
2026-05-06 16:24 38.98905 -77.94721 25087 ft 405 kts 262°
2026-05-06 16:24 38.98536 -77.98293 25455 ft 403 kts 263°
2026-05-06 16:25 38.98171 -78.01826 25744 ft 403 kts 263°
2026-05-06 16:25 38.97798 -78.05404 25947 ft 405 kts 263°
2026-05-06 16:25 38.97430 -78.08928 26167 ft 405 kts 263°
2026-05-06 16:25 38.97062 -78.12452 26429 ft 404 kts 263°
2026-05-06 16:26 38.96689 -78.16011 26691 ft 404 kts 263°
2026-05-06 16:26 38.96322 -78.19495 26999 ft 403 kts 263°
2026-05-06 16:26 38.96098 -78.23031 27366 ft 401 kts 271°
2026-05-06 16:26 38.96296 -78.26596 27727 ft 399 kts 274°
2026-05-06 16:27 38.96555 -78.30091 28061 ft 398 kts 274°
2026-05-06 16:27 38.96820 -78.33618 28395 ft 397 kts 274°
2026-05-06 16:27 38.97076 -78.37147 28720 ft 396 kts 274°
2026-05-06 16:27 38.97319 -78.40663 29114 ft 394 kts 274°
2026-05-06 16:28 38.97552 -78.44154 29512 ft 392 kts 274°
2026-05-06 16:28 38.97779 -78.47646 29864 ft 391 kts 274°
2026-05-06 16:28 38.98001 -78.51122 30148 ft 390 kts 274°
2026-05-06 16:28 38.98216 -78.54527 30540 ft 386 kts 274°
2026-05-06 16:29 38.98427 -78.57888 30994 ft 381 kts 274°
2026-05-06 16:29 38.98635 -78.61220 31427 ft 377 kts 274°
2026-05-06 16:29 38.98842 -78.64571 31882 ft 373 kts 274°
2026-05-06 16:29 38.99041 -78.67806 32287 ft 369 kts 273°
2026-05-06 16:30 38.99242 -78.71059 32664 ft 367 kts 273°
2026-05-06 16:30 38.99377 -78.73262 32914 ft 365 kts 273°
2026-05-06 16:30 38.99638 -78.77547 33477 ft 360 kts 273°
2026-05-06 16:30 38.99833 -78.80749 33850 ft 357 kts 272°
2026-05-06 16:31 39.00025 -78.83923 34132 ft 355 kts 272°
2026-05-06 16:31 39.00215 -78.87090 34359 ft 355 kts 273°
2026-05-06 16:31 39.00403 -78.90218 34564 ft 354 kts 272°
2026-05-06 16:31 39.00589 -78.93346 34850 ft 353 kts 273°
2026-05-06 16:32 39.00774 -78.96483 35176 ft 350 kts 272°
2026-05-06 16:32 39.00956 -78.99555 35456 ft 348 kts 273°
2026-05-06 16:32 39.01139 -79.02665 35662 ft 348 kts 273°
2026-05-06 16:32 39.01320 -79.05765 35897 ft 347 kts 273°
2026-05-06 16:33 39.01502 -79.08864 36042 ft 348 kts 272°
2026-05-06 16:33 39.01681 -79.11973 36223 ft 348 kts 272°
2026-05-06 16:33 39.01860 -79.15073 36475 ft 347 kts 272°
2026-05-06 16:34 39.02234 -79.21241 36945 ft 344 kts 272°
2026-05-06 16:34 39.02435 -79.24302 37121 ft 343 kts 272°
2026-05-06 16:34 39.02635 -79.27307 37282 ft 343 kts 272°
2026-05-06 16:34 39.02838 -79.30364 37492 ft 342 kts 272°
2026-05-06 16:35 39.03039 -79.33413 37696 ft 342 kts 273°
2026-05-06 16:35 39.03238 -79.36463 37875 ft 342 kts 272°
2026-05-06 16:35 39.03435 -79.39509 38059 ft 341 kts 272°
2026-05-06 16:35 39.03632 -79.42554 38247 ft 341 kts 273°
2026-05-06 16:36 39.03826 -79.45585 38616 ft 337 kts 272°
2026-05-06 16:36 39.04015 -79.48539 38847 ft 334 kts 272°
2026-05-06 16:36 39.04204 -79.51524 38970 ft 335 kts 273°
2026-05-06 16:37 39.04582 -79.57524 39199 ft 336 kts 272°
2026-05-06 16:37 39.04768 -79.60510 39335 ft 335 kts 273°
2026-05-06 16:37 39.04955 -79.63492 39443 ft 334 kts 273°
2026-05-06 16:38 39.05325 -79.69450 39564 ft 338 kts 273°
2026-05-06 16:38 39.05696 -79.75485 39787 ft 338 kts 273°
2026-05-06 16:39 39.06060 -79.81468 39915 ft 338 kts 273°
2026-05-06 16:39 39.06423 -79.87458 39886 ft 333 kts 273°
2026-05-06 16:40 39.06779 -79.93385 39874 ft 330 kts 273°
2026-05-06 16:40 39.07128 -79.99266 39876 ft 328 kts 272°
2026-05-06 16:41 39.07472 -80.05122 39872 ft 328 kts 272°
2026-05-06 16:41 39.07813 -80.10945 39869 ft 328 kts 272°
2026-05-06 16:42 39.08154 -80.16844 39899 ft 329 kts 272°
2026-05-06 16:42 39.08491 -80.22697 39876 ft 330 kts 272°
2026-05-06 16:43 39.08827 -80.28602 39872 ft 331 kts 272°
2026-05-06 16:43 39.09152 -80.34525 39870 ft 332 kts 272°
2026-05-06 16:44 39.09465 -80.40461 39864 ft 332 kts 272°
2026-05-06 16:44 39.09776 -80.46401 39867 ft 332 kts 272°
2026-05-06 16:45 39.10084 -80.52324 39867 ft 332 kts 272°
2026-05-06 16:45 39.10387 -80.58203 39856 ft 332 kts 272°
2026-05-06 16:46 39.10691 -80.64124 39867 ft 332 kts 272°
2026-05-06 16:46 39.10992 -80.70066 39860 ft 332 kts 272°
2026-05-06 16:47 39.11289 -80.75997 39852 ft 333 kts 272°
2026-05-06 16:47 39.11580 -80.81872 39880 ft 332 kts 272°
2026-05-06 16:48 39.11871 -80.87817 39879 ft 333 kts 272°
2026-05-06 16:48 39.12109 -80.92718 39881 ft 333 kts 271°
2026-05-06 16:49 39.12443 -80.99644 39880 ft 334 kts 271°
2026-05-06 16:49 39.12677 -81.04569 39884 ft 333 kts 271°
2026-05-06 16:50 39.13349 -81.10471 39899 ft 337 kts 279°
2026-05-06 16:50 39.14846 -81.16240 39914 ft 341 kts 284°
2026-05-06 16:51 39.16486 -81.21939 39925 ft 341 kts 284°
2026-05-06 16:51 39.18133 -81.27677 39925 ft 341 kts 284°
2026-05-06 16:52 39.19772 -81.33424 39933 ft 342 kts 283°
2026-05-06 16:52 39.21410 -81.39197 39938 ft 342 kts 283°
2026-05-06 16:53 39.23042 -81.44967 39943 ft 343 kts 283°
2026-05-06 16:53 39.24661 -81.50702 39943 ft 343 kts 283°
2026-05-06 16:54 39.26292 -81.56496 39903 ft 344 kts 283°
2026-05-06 16:54 39.27911 -81.62259 39970 ft 343 kts 283°
2026-05-06 16:55 39.29540 -81.68074 39923 ft 345 kts 283°
2026-05-06 16:55 39.31156 -81.73852 39920 ft 344 kts 283°
2026-05-06 16:56 39.32776 -81.79655 39909 ft 343 kts 283°
2026-05-06 16:56 39.34390 -81.85451 39928 ft 342 kts 283°
2026-05-06 16:57 39.35997 -81.91238 39928 ft 342 kts 283°
2026-05-06 16:57 39.37602 -81.97030 39912 ft 342 kts 283°
2026-05-06 16:58 39.39188 -82.02762 39934 ft 341 kts 283°
2026-05-06 16:58 39.40779 -82.08529 39929 ft 342 kts 283°
2026-05-06 16:59 39.42362 -82.14284 39932 ft 342 kts 283°
2026-05-06 16:59 39.43956 -82.20085 39915 ft 342 kts 283°
2026-05-06 17:00 39.45547 -82.25888 39939 ft 341 kts 283°
2026-05-06 17:00 39.47132 -82.31688 39940 ft 341 kts 283°
2026-05-06 17:01 39.48713 -82.37483 39921 ft 342 kts 283°
2026-05-06 17:01 39.50283 -82.43250 39949 ft 342 kts 283°
2026-05-06 17:02 39.51864 -82.49072 39944 ft 342 kts 283°
2026-05-06 17:02 39.53440 -82.54889 39956 ft 342 kts 283°
2026-05-06 17:03 39.55012 -82.60703 39964 ft 342 kts 283°
2026-05-06 17:03 39.56579 -82.66516 39974 ft 341 kts 283°
2026-05-06 17:04 39.58134 -82.72295 40005 ft 342 kts 283°
2026-05-06 17:04 39.59693 -82.78102 39988 ft 342 kts 283°
2026-05-06 17:05 39.61251 -82.83919 39980 ft 342 kts 282°
2026-05-06 17:05 39.62797 -82.89703 39974 ft 341 kts 282°
2026-05-06 17:06 39.64349 -82.95523 39977 ft 341 kts 282°
2026-05-06 17:06 39.65895 -83.01333 39970 ft 340 kts 282°
2026-05-06 17:07 39.67435 -83.07139 39972 ft 340 kts 282°
2026-05-06 17:07 39.68964 -83.12913 39962 ft 340 kts 282°
2026-05-06 17:08 39.70489 -83.18688 39975 ft 340 kts 282°
2026-05-06 17:08 39.72022 -83.24503 39975 ft 340 kts 282°
2026-05-06 17:09 39.73550 -83.30315 39977 ft 340 kts 282°
2026-05-06 17:09 39.75066 -83.36094 39972 ft 340 kts 282°
2026-05-06 17:10 39.76589 -83.41915 39971 ft 340 kts 282°
2026-05-06 17:10 39.78109 -83.47738 39987 ft 340 kts 282°
2026-05-06 17:11 39.79624 -83.53555 40006 ft 340 kts 282°
2026-05-06 17:11 39.81142 -83.59395 39996 ft 341 kts 282°
2026-05-06 17:12 39.82657 -83.65238 39969 ft 341 kts 282°
2026-05-06 17:12 39.84159 -83.71048 39965 ft 341 kts 282°
2026-05-06 17:13 39.85669 -83.76901 39977 ft 341 kts 282°
2026-05-06 17:13 39.87176 -83.82756 40000 ft 342 kts 282°
2026-05-06 17:14 39.88684 -83.88628 39976 ft 342 kts 282°
2026-05-06 17:14 39.90192 -83.94517 39985 ft 343 kts 282°
2026-05-06 17:15 39.91697 -84.00406 39991 ft 343 kts 282°
2026-05-06 17:15 39.93190 -84.06260 39987 ft 342 kts 282°
2026-05-06 17:16 39.94697 -84.12185 40010 ft 342 kts 281°
2026-05-06 17:16 39.96189 -84.18067 40005 ft 342 kts 281°
2026-05-06 17:17 39.97668 -84.23911 40009 ft 341 kts 281°
2026-05-06 17:17 39.99153 -84.29797 39963 ft 342 kts 281°
2026-05-06 17:17 39.99898 -84.32749 39606 ft 339 kts 281°
2026-05-06 17:18 40.00630 -84.35648 39046 ft 337 kts 281°
2026-05-06 17:18 40.01354 -84.38524 38660 ft 330 kts 281°
2026-05-06 17:18 40.02048 -84.41360 38078 ft 325 kts 280°
2026-05-06 17:18 40.02688 -84.44152 37528 ft 321 kts 279°
2026-05-06 17:19 40.03308 -84.46923 36964 ft 319 kts 279°
2026-05-06 17:19 40.03926 -84.49691 36374 ft 316 kts 279°
2026-05-06 17:19 40.04543 -84.52447 35812 ft 317 kts 279°
2026-05-06 17:19 40.05155 -84.55183 35265 ft 319 kts 279°
2026-05-06 17:20 40.05781 -84.57969 34730 ft 322 kts 279°
2026-05-06 17:20 40.06416 -84.60797 34202 ft 325 kts 279°
2026-05-06 17:20 40.07055 -84.63636 33625 ft 327 kts 279°
2026-05-06 17:20 40.07700 -84.66504 33028 ft 332 kts 279°
2026-05-06 17:21 40.08351 -84.69407 32457 ft 333 kts 279°
2026-05-06 17:21 40.08999 -84.72293 31874 ft 329 kts 279°
2026-05-06 17:21 40.09636 -84.75147 31307 ft 326 kts 279°
2026-05-06 17:21 40.10265 -84.77982 30757 ft 324 kts 279°
2026-05-06 17:22 40.10888 -84.80800 30213 ft 322 kts 279°
2026-05-06 17:22 40.11507 -84.83602 29599 ft 320 kts 279°
2026-05-06 17:22 40.12120 -84.86383 28971 ft 319 kts 279°
2026-05-06 17:22 40.12726 -84.89135 28363 ft 318 kts 279°
2026-05-06 17:23 40.13335 -84.91902 27765 ft 317 kts 279°
2026-05-06 17:23 40.13943 -84.94668 27169 ft 316 kts 279°
2026-05-06 17:23 40.14549 -84.97429 26665 ft 315 kts 279°
2026-05-06 17:23 40.15153 -85.00183 26092 ft 315 kts 279°
2026-05-06 17:24 40.15757 -85.02939 25533 ft 315 kts 279°
2026-05-06 17:24 40.16360 -85.05695 25017 ft 315 kts 279°
2026-05-06 17:24 40.16962 -85.08451 24480 ft 315 kts 279°
2026-05-06 17:24 40.17564 -85.11207 23789 ft 318 kts 279°
2026-05-06 17:25 40.18178 -85.14038 22901 ft 326 kts 279°
2026-05-06 17:25 40.18814 -85.16972 22254 ft 347 kts 280°
2026-05-06 17:25 40.19486 -85.20074 21609 ft 360 kts 280°
2026-05-06 17:25 40.20180 -85.23227 20962 ft 357 kts 280°
2026-05-06 17:26 40.20858 -85.26286 20328 ft 344 kts 280°
2026-05-06 17:26 40.21509 -85.29239 19712 ft 332 kts 280°
2026-05-06 17:26 40.22134 -85.32097 19125 ft 322 kts 280°
2026-05-06 17:26 40.22733 -85.34840 18546 ft 314 kts 280°
2026-05-06 17:27 40.23077 -85.37592 17896 ft 301 kts 265°
2026-05-06 17:27 40.22850 -85.40277 17236 ft 294 kts 258°
2026-05-06 17:27 40.22252 -85.42807 16613 ft 291 kts 247°
2026-05-06 17:27 40.21310 -85.45171 15993 ft 295 kts 243°
2026-05-06 17:28 40.20288 -85.47512 15450 ft 297 kts 242°
2026-05-06 17:28 40.19253 -85.49859 14968 ft 298 kts 242°
2026-05-06 17:28 40.18222 -85.52208 14506 ft 298 kts 242°
2026-05-06 17:28 40.17199 -85.54560 14025 ft 297 kts 242°
2026-05-06 17:29 40.16177 -85.56916 13506 ft 297 kts 242°
2026-05-06 17:29 40.15169 -85.59247 12978 ft 292 kts 242°
2026-05-06 17:29 40.14179 -85.61535 12485 ft 286 kts 242°
2026-05-06 17:29 40.13218 -85.63772 12027 ft 280 kts 242°
2026-05-06 17:30 40.12279 -85.65971 11569 ft 274 kts 242°
2026-05-06 17:30 40.11360 -85.68123 11271 ft 267 kts 242°
2026-05-06 17:30 40.10474 -85.70198 11008 ft 256 kts 241°
2026-05-06 17:30 40.09635 -85.72161 10757 ft 246 kts 241°
2026-05-06 17:31 40.08815 -85.74080 10510 ft 239 kts 241°
2026-05-06 17:31 40.08003 -85.75974 10278 ft 238 kts 241°
2026-05-06 17:31 40.07191 -85.77868 10032 ft 240 kts 240°
2026-05-06 17:31 40.06363 -85.79796 9784 ft 245 kts 240°
2026-05-06 17:32 40.05511 -85.81737 9554 ft 246 kts 239°
2026-05-06 17:32 40.04600 -85.83628 9321 ft 245 kts 238°
2026-05-06 17:32 40.03686 -85.85501 9029 ft 244 kts 238°
2026-05-06 17:32 40.02763 -85.87354 8743 ft 243 kts 235°
2026-05-06 17:33 40.01697 -85.89082 8464 ft 243 kts 231°
2026-05-06 17:33 40.00594 -85.90748 8180 ft 243 kts 231°
2026-05-06 17:33 39.99501 -85.92391 7898 ft 242 kts 231°
2026-05-06 17:33 39.98402 -85.94052 7608 ft 242 kts 232°
2026-05-06 17:34 39.97307 -85.95716 7328 ft 241 kts 232°
2026-05-06 17:34 39.96214 -85.97383 7055 ft 242 kts 232°
2026-05-06 17:34 39.95130 -85.99039 6750 ft 238 kts 232°
2026-05-06 17:34 39.94066 -86.00666 6491 ft 233 kts 232°
2026-05-06 17:35 39.93034 -86.02249 6233 ft 228 kts 232°
2026-05-06 17:35 39.92012 -86.03816 5957 ft 225 kts 232°
2026-05-06 17:35 39.90998 -86.05370 5696 ft 225 kts 232°
2026-05-06 17:36 39.88984 -86.08451 5129 ft 218 kts 232°
2026-05-06 17:36 39.88008 -86.09905 4843 ft 210 kts 229°
2026-05-06 17:36 39.87002 -86.11203 4602 ft 201 kts 227°
2026-05-06 17:36 39.86020 -86.12439 4448 ft 191 kts 227°
2026-05-06 17:37 39.85066 -86.13650 4209 ft 190 kts 227°
2026-05-06 17:37 39.84134 -86.14839 3964 ft 185 kts 228°
2026-05-06 17:37 39.83228 -86.15997 3704 ft 180 kts 228°
2026-05-06 17:37 39.82347 -86.17121 3475 ft 175 kts 228°
2026-05-06 17:38 39.81487 -86.18215 3208 ft 171 kts 225°
2026-05-06 17:38 39.80665 -86.19262 2995 ft 160 kts 227°
2026-05-06 17:38 39.79897 -86.20249 2813 ft 148 kts 227°
2026-05-06 17:38 39.79158 -86.21197 2616 ft 147 kts 227°
2026-05-06 17:39 39.78456 -86.22094 2391 ft 142 kts 227°
2026-05-06 17:39 39.77745 -86.23001 2215 ft 144 kts 228°
2026-05-06 17:39 39.77036 -86.23910 1990 ft 141 kts 227°
2026-05-06 17:39 39.76343 -86.24796 1814 ft 140 kts 227°
2026-05-06 17:40 39.75657 -86.25672 1624 ft 136 kts 227°
2026-05-06 17:40 39.74995 -86.26545 1416 ft 136 kts 226°
2026-05-06 17:40 39.74321 -86.27390 1223 ft 133 kts 224°
2026-05-06 17:40 39.73873 -86.27946 1109 ft 136 kts 225°
2026-05-06 17:41 39.73206 -86.28795 924 ft 131 kts 225°
2026-05-06 17:41 39.72584 -86.29613 786 ft 119 kts 223°
2026-05-06 17:41 39.72073 -86.30253 784 ft 81 kts 224°
2026-05-06 17:41 39.71773 -86.30638 782 ft 43 kts 225°
2026-05-06 17:42 39.71577 -86.30890 787 ft 34 kts 223°
2026-05-06 17:42 39.71435 -86.31001 787 ft 18 kts 188°
2026-05-06 17:42 39.71333 -86.30982 786 ft 0 kts 145°